Das Wetter in  D-61279 Heinzenberg / Taunus





Wetter Minimum- & Maximum-Werte im Februar 2008

Standort: Heinzenberg / Taunus - Höhe 297 m         8 24' 1" Ost 50 21' 51" Nord
(   3-stündige Aktualisierung    letzte Aktualisierung um 19:04 am 29.02.2008  )


Messgrösse

Minimum

Maximum

Durchschnitt

Temperatur West /
Luftfeuchte West
Anklicken für Monats-Diagramm

-8,9 C

06:40
17.02.2008

31 %

15:17
18.02.2008

15,9 C

14:36
24.02.2008

95 %

10:22
07.02.2008

Temp

3,2 C

Feuchte

80 %

Temperatur Ost /
Luftfeuchte Ost
Anklicken für Monats-Diagramm

-8,9 C

08:20
17.02.2008

--

--
--

15,0 C

15:46
24.02.2008

--

--
--

3,2 C

--

Luftdruck Anklicken für Monats-Diagramm

999,9 hPa

12:22
01.02.2008

1046,9 hPa

23:15
16.02.2008

1026,7 hPa

Taupunkt

-11,7 C

06:40
17.02.2008

9,1 C

14:26
24.02.2008

-0,1 C

Windchill
( gefühlte Temperatur )

-16,5 C

07:48
02.02.2008

15,9 C

14:36
24.02.2008

0,2 C

Windgeschwindigkeit /
Windrichtung
Anklicken für Monats-Diagramm

---

57,8 km/h / W

23:56
29.02.2008

9,2 km/h
W

Helligkeit /
Sonnenschein
Anklicken für Monats-Diagramm
Anklicken für Monats-Diagramm

Sonnenschein:

129:01 Stunden

Max: 9:00 Std am
24.02.2008

71,2 klux

12:34
28.02.2008

20,1 klux

Solarstrahlung Anklicken für Monats-Diagramm

---

487 W/m

12:34
28.02.2008

153 W/m

Regenmenge
    Februar 2008
Anklicken für Monats-Diagramm

Insgesamt 10,8 l/m

in 64:22 Stunden
an 13 Tagen

5,9 l/m

01:40
29.02.2008

Gesamtmenge

10,8 l/m

Regen-Tage
    Februar 2008
Anklicken für Monats-Diagramm

>   0 mm/Tag

>   2 mm/Tag

>   5 mm/Tag

> 10 mm/Tag

> 20 mm/Tag

13 Tage     
  1 Tag     
  1 Tag     
0 Tage     
0 Tage     

Eisige Tage Februar 2008 / 2007

Tmin ≤ -10C     

0 Tage

/

0 Tage

Eistage Februar 2008 / 2007

Tmax <     0C     

0 Tage

/

0 Tage

Frosttage Februar 2008 / 2007

Tmin ≤     0C     

19 Tage

/

8 Tage

Kalte Tage Februar 2008 / 2007

Tmax <   10C     

16 Tage

/

17 Tage

Warme Tage Februar 2008 / 2007

Tmax ≥   20C     

0 Tage

/

0 Tage

Sommertage Februar 2008 / 2007

Tmax ≥   25C     

0 Tage

/

0 Tage

Heisse Tage Februar 2008 / 2007

Tmax ≥   30C     

0 Tage

/

0 Tage


Monatsdiagramm Februar 2008

Die Kurven zeigen den Durchschnittswert des jeweiligen Tages an


Wetter-Monatsübersicht Februar 2008
Datum
  Temperatur
   Luftdruck
   Wind
  Regen
   Luftfeuchte
   Helligkeit

Sonnen-
schein


Temp.

Min.
Temp.

Max.
Temp.


Luftdruck

Min.
Luftdruck

Max.
Luftdruck

-Geschw.
Haupt-Richtg.

Max.
Wind

Menge /
Dauer


Feuchte

Min.
Feuchte

Max.
Feuchte


Helligkeit

Max.
Helligkeit

1.
Februar
2,5 C1,2 C
16:57
4,7 C
11:57
1001,8 hPa999,9 hPa
12:22
1006,5 hPa
00:02
28,5 km/h
W-SW
54,4 km/h
03:32  
1,2 l/m
10:30 Stunden
89 %82 %
00:02
94 %
18:22
4,4 klux18,6 klux
11:42
--- 
2.
Februar
0,4 C-2,2 C
23:54
2,1 C
13:18
1014,5 hPa1004,5 hPa
00:03
1023,6 hPa
23:54
18,3 km/h
W
51,2 km/h
05:03  
0,3 l/m
1:35 Stunden
87 %78 %
05:58
94 %
09:23
11,8 klux55,0 klux
12:43
55 Min 
3.
Februar
-0,4 C-4,9 C
07:39
5,6 C
15:49
1018,1 hPa1010,9 hPa
22:40
1023,8 hPa
01:39
6,7 km/h
O-SO
26,8 km/h
13:19  
---
80 %62 %
15:59
91 %
08:09
25,8 klux47,3 klux
11:39
7:20 Std 
4.
Februar
2,9 C-0,8 C
00:05
6,9 C
14:50
1008,3 hPa1004,5 hPa
06:10
1015,8 hPa
23:56
11,7 km/h
O-SO
35,0 km/h
15:25  
---
1:45 Stunden
80 %73 %
07:45
88 %
23:06
10,0 klux48,0 klux
14:50
35 Min 
5.
Februar
3,9 C1,6 C
00:36
7,6 C
23:31
1015,9 hPa1013,0 hPa
23:31
1017,9 hPa
04:36
20,4 km/h
SW
46,5 km/h
21:21  
0,8 l/m
4:29 Stunden
87 %79 %
11:26
92 %
16:51
4,3 klux24,5 klux
13:51
--- 
6.
Februar
6,9 C2,9 C
23:52
10,2 C
12:31
1019,5 hPa1011,8 hPa
03:21
1033,3 hPa
23:52
24,8 km/h
W
49,3 km/h
11:41  
0,6 l/m
8:32 Stunden
88 %76 %
12:11
93 %
05:16
15,7 klux65,9 klux
12:06
2:20 Std 
7.
Februar
2,9 C-0,4 C
07:42
8,8 C
15:47
1038,0 hPa1033,3 hPa
00:02
1041,0 hPa
23:58
4,2 km/h
W-NW
23,1 km/h
13:32  
0,2 l/m
20 Minuten
87 %66 %
15:07
95 %
10:22
24,9 klux61,5 klux
13:17
5:25 Std 
8.
Februar
2,4 C-2,1 C
08:13
11,4 C
15:08
1039,2 hPa1037,4 hPa
15:08
1041,3 hPa
08:33
3,0 km/h
SO
20,0 km/h
13:43  
---
79 %49 %
15:18
93 %
10:48
28,9 klux49,9 klux
12:48
8:25 Std 
9.
Februar
2,5 C-2,5 C
08:19
12,5 C
14:59
1037,6 hPa1035,2 hPa
14:59
1039,2 hPa
08:19
2,3 km/h
O-SO
16,5 km/h
14:04  
---
72 %39 %
14:19
90 %
10:49
29,8 klux50,4 klux
12:24
8:25 Std 
10.
Februar
2,6 C-2,9 C
08:05
13,6 C
15:00
1037,3 hPa1035,1 hPa
15:00
1038,3 hPa
08:05
2,1 km/h
SO
17,2 km/h
14:50  
---
75 %54 %
15:05
86 %
09:00
27,8 klux52,7 klux
11:35
8:20 Std 
11.
Februar
3,2 C-2,4 C
07:16
14,2 C
15:01
1036,9 hPa1034,0 hPa
16:26
1038,2 hPa
07:16
2,3 km/h
SO
13,5 km/h
15:11  
---
80 %55 %
15:11
92 %
10:46
28,3 klux49,9 klux
12:31
8:25 Std 
12.
Februar
3,1 C-2,3 C
06:47
13,4 C
14:22
1035,7 hPa1033,0 hPa
14:22
1037,1 hPa
06:47
2,7 km/h
SO
16,6 km/h
13:02  
---
81 %58 %
14:47
92 %
09:52
27,8 klux50,1 klux
12:32
7:45 Std 
13.
Februar
1,1 C-2,6 C
04:53
9,2 C
15:38
1036,9 hPa1034,6 hPa
15:38
1038,2 hPa
23:53
1,3 km/h
W-NW
9,9 km/h
14:33  
---
86 %69 %
15:48
93 %
11:58
19,7 klux49,9 klux
13:08
4:25 Std 
14.
Februar
-1,5 C-4,6 C
05:43
0,7 C
14:23
1037,2 hPa1035,7 hPa
14:43
1038,3 hPa
07:33
0,4 km/h
N-NO
13,8 km/h
21:53  
---
92 %88 %
00:03
93 %
10:23
4,9 klux10,9 klux
12:33
--- 
15.
Februar
0,7 C-3,4 C
23:55
6,6 C
14:44
1038,7 hPa1036,9 hPa
02:59
1042,5 hPa
23:55
2,7 km/h
N-NO
26,5 km/h
14:14  
---
76 %52 %
14:14
94 %
00:34
29,4 klux54,3 klux
11:34
8:10 Std 
16.
Februar
-2,8 C-7,6 C
08:15
5,1 C
15:35
1045,0 hPa1042,5 hPa
00:00
1046,9 hPa
23:15
2,5 km/h
O-SO
21,7 km/h
15:50  
---
66 %44 %
15:45
84 %
10:15
30,9 klux52,7 klux
12:20
8:50 Std 
17.
Februar
-2,6 C-8,9 C
06:40
8,6 C
15:50
1042,2 hPa1038,8 hPa
15:50
1046,1 hPa
02:10
1,7 km/h
SO
11,0 km/h
15:25  
---
67 %42 %
15:20
82 %
08:00
30,9 klux56,7 klux
12:40
8:50 Std 
18.
Februar
-0,4 C-7,3 C
08:37
10,3 C
15:17
1034,6 hPa1030,5 hPa
17:22
1039,6 hPa
00:07
3,1 km/h
SO
15,4 km/h
12:12  
---
60 %31 %
15:17
81 %
09:57
31,4 klux54,1 klux
12:27
8:55 Std 
19.
Februar
-0,0 C-5,5 C
07:07
9,4 C
15:42
1027,9 hPa1024,2 hPa
15:42
1032,1 hPa
01:07
1,7 km/h
W-NW
10,8 km/h
14:47  
---
71 %61 %
15:47
83 %
23:43
30,1 klux53,3 klux
12:27
8:55 Std 
20.
Februar
-0,2 C-4,6 C
03:08
4,3 C
22:58
1022,5 hPa1020,8 hPa
19:28
1024,9 hPa
01:13
1,7 km/h
W-SW
18,0 km/h
22:53  
0,6 l/m
7:44 Stunden
90 %83 %
00:03
94 %
22:48
6,1 klux16,1 klux
14:43
--- 
21.
Februar
4,9 C-0,9 C
06:03
9,5 C
14:08
1024,4 hPa1022,8 hPa
00:03
1025,5 hPa
23:44
10,1 km/h
W-SW
27,8 km/h
19:08  
---
45 Minuten
88 %77 %
16:03
94 %
00:03
12,8 klux49,5 klux
13:48
40 Min 
22.
Februar
8,4 C7,2 C
00:04
9,6 C
14:54
1024,8 hPa1023,2 hPa
15:19
1026,4 hPa
23:10
25,7 km/h
W
43,8 km/h
16:14  
---
25 Minuten
81 %76 %
15:04
87 %
00:34
8,9 klux26,7 klux
14:49
--- 
23.
Februar
8,8 C3,5 C
23:41
14,1 C
15:45
1027,8 hPa1026,3 hPa
00:00
1030,5 hPa
10:10
14,5 km/h
W
40,0 km/h
21:40  
---
77 %60 %
15:50
87 %
23:56
22,1 klux62,4 klux
11:35
4:20 Std 
24.
Februar
6,2 C-0,2 C
06:41
15,9 C
14:36
1022,1 hPa1018,2 hPa
15:46
1027,0 hPa
00:01
3,2 km/h
SO
27,8 km/h
15:51  
---
81 %60 %
15:51
93 %
10:51
31,4 klux56,7 klux
12:16
9:00 Std 
25.
Februar
8,8 C3,1 C
01:02
14,0 C
15:07
1021,0 hPa1017,9 hPa
04:52
1024,3 hPa
11:02
11,5 km/h
W
26,5 km/h
04:07  
0,5 l/m
2:05 Stunden
81 %60 %
15:22
93 %
07:37
26,5 klux67,6 klux
11:37
4:20 Std 
26.
Februar
9,5 C6,9 C
23:38
13,0 C
11:53
1012,5 hPa1008,6 hPa
16:58
1019,1 hPa
00:03
21,2 km/h
W-SW
44,0 km/h
17:02  
---
8:05 Stunden
84 %68 %
11:57
92 %
18:53
12,0 klux66,5 klux
10:48
1:35 Std 
27.
Februar
6,6 C4,2 C
23:54
10,2 C
14:13
1017,1 hPa1011,0 hPa
00:13
1022,8 hPa
23:54
20,1 km/h
W
42,0 km/h
11:18  
---
76 %63 %
14:18
89 %
00:03
16,1 klux69,4 klux
14:13
1:05 Std 
28.
Februar
5,9 C2,1 C
02:29
11,2 C
14:49
1022,4 hPa1020,5 hPa
22:45
1024,1 hPa
07:24
5,3 km/h
W-SW
24,6 km/h
13:04  
0,8 l/m
3:26 Stunden
73 %54 %
14:44
88 %
07:59
20,5 klux71,2 klux
12:34
1:56 Std 
29.
Februar
7,2 C5,5 C
00:00
8,9 C
12:30
1014,4 hPa1003,7 hPa
23:31
1020,5 hPa
00:00
12,1 km/h
W
57,8 km/h
23:56  
5,9 l/m
14:41 Stunden
91 %81 %
18:40
95 %
11:55
9,2 klux38,9 klux
11:10
5 Min 



Februar
2008

Temperatur

  

Luftdruck

  

Wind

  

Regen

  

Luftfeuchte

  

Helligkeit

Sonnen-
schein

Min

Max

Min

Max

Max

Max

Min

Max

Max

Max

3,2 C

-8,9 C

06:40 Uhr
17.02.2008

15,9 C

14:36 Uhr
24.02.2008

1026,7 hPa

999,9 hPa

12:22 Uhr
01.02.2008

1046,9 hPa

23:15 Uhr
16.02.2008

9,2 km/h

W

57,8 km/h

23:56 Uhr
29.02.2008

5,9 l/m

14:41 Stunden
29.02.2008

80 %

31 %

15:17 Uhr
18.02.2008

95 %

10:22 Uhr
07.02.2008

20,1 klux

71,2 klux

12:34 Uhr
28.02.2008

9:00 Std

am
24.02.2008

Gesamt

Gesamt

10,8 l/m

13 Tage
64:22 h

129:01 Std


Wetter-Diagramme Februar 2008     Heinzenberg / Taunus   
TemperaturLuftfeuchte
SolarstrahlungLuftdruck
HelligkeitSonnenschein
RegenmengeRegendauer
Wind-GeschwindigkeitWind-Richtung